Palacios, TX

4:46 AM CDT on July 23, 2017 (GMT -0500)
Palacios Municipal

Weather History for KPSX - March, 2014

Change the Weather History Date:

Tuesday, March 18, 2014

  Actual Average Record
Temperature  
Mean Temperature 64 °F -  
Max Temperature 72 °F 73 °F 84 °F (1972)
Min Temperature 55 °F 55 °F 34 °F (1960)
Degree Days  
Heating Degree Days 2    
Growing Degree Days 14 (Base 50)    
Moisture  
Dew Point 56 °F    
Average Humidity 76    
Maximum Humidity 93    
Minimum Humidity 63    
Precipitation  
Precipitation 0.00 in - - ()
Sea Level Pressure  
Sea Level Pressure 29.82 in    
Wind  
Wind Speed 13 mph (SSE)    
Max Wind Speed 22 mph    
Max Gust Speed 26 mph    
Visibility 10 miles    
Events      
Averages and records for this station are not official NWS values.
T = Trace of Precipitation, MM = Missing Value Source: NWS Daily Summary

Daily Weather History Graph

Daily Weather History Graph

Search for Another Location

Airport or City:

Trip Planner

Search our weather history database for the weather conditions in past years. The results will help you decide how hot, cold, wet, or windy it might be!

Date:

Astronomy

Mar. 18, 2014 Rise Set
Actual Time 7:31 AM CDT 7:35 PM CDT
Civil Twilight 7:07 AM CDT 7:58 PM CDT
Nautical Twilight 6:40 AM CDT 8:26 PM CDT
Astronomical Twilight 6:12 AM CDT 8:53 PM CDT
Moon 9:40 PM CDT (3/18) 8:31 AM CDT (3/18)
Length of Visible Light 12h 51m
Length of Day
12h 04m
Waning Gibbous, 96% of the Moon is Illuminated
Mar 18
Waning Gibbous
Mar 23
Last Quarter
Mar 30
New
Apr 7
First Quarter
Apr 15
Full

Hourly Weather History & Observations

Time (CDT) Temp. Dew Point Humidity Pressure Visibility Wind Dir Wind Speed Gust Speed Precip Events Conditions
12:53 AM 55.9 °F 48.0 °F 75% 29.84 in 10.0 mi SSE 10.4 mph - N/A   Clear
1:53 AM 55.9 °F 48.9 °F 77% 29.84 in 10.0 mi SSE 10.4 mph - N/A   Clear
2:53 AM 55.9 °F 48.9 °F 77% 29.84 in 10.0 mi SSE 8.1 mph - N/A   Clear
3:53 AM 57.0 °F 51.1 °F 81% 29.82 in 10.0 mi SSE 11.5 mph - N/A   Clear
4:53 AM 57.0 °F 51.1 °F 81% 29.80 in 10.0 mi South 10.4 mph - N/A   Clear
5:53 AM 57.9 °F 51.1 °F 78% 29.81 in 10.0 mi South 10.4 mph - N/A   Clear
6:53 AM 57.9 °F 53.1 °F 84% 29.80 in 10.0 mi South 11.5 mph - N/A   Clear
7:53 AM 57.9 °F 53.1 °F 84% 29.81 in 10.0 mi South 9.2 mph - N/A   Clear
8:53 AM 62.1 °F 54.0 °F 75% 29.82 in 10.0 mi South 11.5 mph - N/A   Clear
9:53 AM 64.9 °F 55.0 °F 70% 29.83 in 10.0 mi South 16.1 mph 21.9 mph N/A   Clear
10:53 AM 68.0 °F 55.9 °F 65% 29.84 in 10.0 mi South 13.8 mph - N/A   Clear
11:53 AM 68.0 °F 55.9 °F 65% 29.85 in 10.0 mi South 17.3 mph 24.2 mph N/A   Clear
12:53 PM 69.1 °F 57.0 °F 65% 29.84 in 10.0 mi South 17.3 mph 26.5 mph N/A   Clear
1:53 PM 71.1 °F 57.9 °F 63% 29.82 in 10.0 mi South 19.6 mph 26.5 mph N/A   Clear
2:53 PM 71.1 °F 57.9 °F 63% 29.80 in 10.0 mi South 21.9 mph 26.5 mph N/A   Clear
3:53 PM 72.0 °F 59.0 °F 64% 29.79 in 10.0 mi South 17.3 mph - N/A   Clear
4:53 PM 72.0 °F 59.0 °F 64% 29.78 in 10.0 mi South 19.6 mph - N/A   Clear
5:53 PM 70.0 °F 60.1 °F 71% 29.79 in 10.0 mi SSE 17.3 mph - N/A   Clear
6:53 PM 68.0 °F 60.1 °F 76% 29.79 in 10.0 mi SSE 17.3 mph - N/A   Clear
7:53 PM 66.0 °F 60.1 °F 81% 29.80 in 10.0 mi SSE 15.0 mph - N/A   Clear
8:53 PM 64.9 °F 61.0 °F 87% 29.82 in 10.0 mi SSE 13.8 mph - N/A   Clear
9:53 PM 64.9 °F 61.0 °F 87% 29.86 in 10.0 mi SSE 10.4 mph - N/A   Clear
10:53 PM 64.0 °F 61.0 °F 90% 29.88 in 10.0 mi SSE 10.4 mph - N/A   Clear
11:53 PM 64.0 °F 62.1 °F 93% 29.88 in 10.0 mi SSE 12.7 mph - N/A   Clear